Weather History for Avalon, CA

Change the Weather History Date:

Saturday, February 22, 2014

  Actual Average Record
Temperature  
Mean Temperature 62 °F -  
Max Temperature 66 °F 54 °F 80 °F (2002)
Min Temperature 57 °F 46 °F 43 °F (2011)
Degree Days  
Heating Degree Days 4    
Growing Degree Days 12 (Base 50)    
Moisture  
Dew Point 35 °F    
Average Humidity 37    
Maximum Humidity 54    
Minimum Humidity 23    
Precipitation  
Precipitation 0.00 in - - ()
Sea Level Pressure  
Sea Level Pressure 29.88 in    
Wind  
Wind Speed 3 mph (SW)    
Max Wind Speed 6 mph    
Max Gust Speed -    
Visibility 10 miles    
Events      
Averages and records for this station are not official NWS values.
T = Trace of Precipitation, MM = Missing Value Source: NWS Daily Summary

Daily Weather History Graph

Daily Weather History Graph

Search for Another Location

Airport:

Trip Planner

Search our weather history database for the weather conditions in past years. The results will help you decide how hot, cold, wet, or windy it might be!

Date:

Astronomy

Feb. 22, 2014 Rise Set
Actual Time 6:30 AM PST 5:44 PM PST
Civil Twilight 6:04 AM PST 6:09 PM PST
Nautical Twilight 5:35 AM PST 6:38 PM PST
Astronomical Twilight 5:07 AM PST 7:07 PM PST
Moon 12:23 AM PST 11:07 AM PST
Length of Visible Light 12h 04m
Length of Day
11h 14m
Waning Gibbous, 49% of the Moon is Illuminated
Feb 22
Waning Gibbous
Mar 1
New
Mar 8
First Quarter
Mar 16
Full
Mar 23
Last Quarter

Hourly Weather History & Observations

Time (PST) Temp. Dew Point Humidity Pressure Visibility Wind Dir Wind Speed Gust Speed Precip Events Conditions
12:51 AM 62.1 °F 28.9 °F 29% 29.88 in 10.0 mi SE 4.6 mph - N/A   Clear
1:51 AM 60.1 °F 30.9 °F 33% 29.88 in 10.0 mi ESE 4.6 mph - N/A   Clear
2:51 AM 62.1 °F 26.1 °F 25% 29.86 in 10.0 mi South 4.6 mph - N/A   Clear
3:51 AM 61.0 °F 24.1 °F 24% 29.86 in 10.0 mi SSE 3.5 mph - N/A   Clear
4:51 AM 61.0 °F 23.0 °F 23% 29.86 in 10.0 mi Calm Calm - N/A   Clear
5:51 AM 59.0 °F 26.1 °F 28% 29.88 in 10.0 mi Calm Calm - N/A   Clear
6:51 AM 57.9 °F 28.9 °F 33% 29.89 in 10.0 mi Calm Calm - N/A   Clear
7:51 AM 62.1 °F 30.0 °F 30% 29.90 in 10.0 mi Calm Calm - N/A   Clear
8:51 AM 66.9 °F 30.0 °F 25% 29.90 in 10.0 mi Calm Calm - N/A   Clear
9:51 AM 64.0 °F 37.0 °F 37% 29.91 in 10.0 mi West 3.5 mph - N/A   Clear
10:51 AM 64.9 °F 37.0 °F 36% 29.91 in 10.0 mi WNW 4.6 mph - N/A   Clear
11:51 AM 64.9 °F 46.0 °F 50% 29.91 in 10.0 mi West 5.8 mph - N/A   Clear
12:51 PM 63.0 °F 46.0 °F 54% 29.89 in 10.0 mi WSW 4.6 mph - N/A   Clear
1:51 PM 64.0 °F 46.9 °F 54% 29.87 in 10.0 mi WSW 3.5 mph - N/A   Clear
2:51 PM 64.0 °F 44.1 °F 48% 29.86 in 10.0 mi NW 3.5 mph - N/A   Clear
3:51 PM 64.9 °F 43.0 °F 45% 29.85 in 10.0 mi Calm Calm - N/A   Clear
4:51 PM 64.0 °F 39.0 °F 40% 29.86 in 10.0 mi SW 3.5 mph - N/A   Clear
5:51 PM 64.0 °F 41.0 °F 43% 29.86 in 10.0 mi Calm Calm - N/A   Clear
6:51 PM 63.0 °F 37.0 °F 38% 29.87 in 10.0 mi WSW 4.6 mph - N/A   Clear
7:51 PM 64.0 °F 34.0 °F 33% 29.88 in 10.0 mi West 3.5 mph - N/A   Clear
8:51 PM 62.1 °F 35.1 °F 37% 29.89 in 10.0 mi Calm Calm - N/A   Clear
9:51 PM 60.1 °F 37.9 °F 44% 29.90 in 10.0 mi ENE 4.6 mph - N/A   Clear
10:51 PM 60.1 °F 37.0 °F 42% 29.91 in 10.0 mi Calm Calm - N/A   Clear
11:51 PM 60.1 °F 32.0 °F 35% 29.91 in 10.0 mi Calm Calm - N/A   Clear